GW4151 Weather Reports


Display with metric or nautical units.
time (UTC)temp
F
wind
direction
speed
MPH
gust
MPH
rain 1hr
in
rain 24hr
in
rain mn
in
humidity
%
barometer
mb
20260502130653 42 10 3.0 7.0 0.00 0.00 0.00 69 999.2
20260502123647 41 183 2.0 2.0 0.00 0.00 0.00 76 999.2
20260502122143 39 197 0.0 2.0 0.00 0.00 0.00 80 999.2
20260502120641 39 24 2.0 3.0 0.00 0.00 0.00 80 999.2
20260502115137 38 185 0.0 1.0 0.00 0.00 0.00 82 999.2
20260502113634 38 197 0.0 0.0 0.00 0.00 0.00 83 998.9
20260502112133 33 197 0.0 0.0 0.00 0.00 0.00 93 999.1
20260502110631 30 186 0.0 0.0 0.00 0.00 0.00 94 998.9
20260502105128 29 194 0.0 0.0 0.00 0.00 0.00 93 998.8
20260502103626 29 174 0.0 0.0 0.00 0.00 0.00 93 998.8
20260502102123 29 200 0.0 0.0 0.00 0.00 0.00 92 999.0
20260502100623 30 200 0.0 0.0 0.00 0.00 0.00 91 998.9
20260502090615 32 200 0.0 0.0 0.00 0.00 0.00 86 998.5
20260502070553 37 243 1.0 2.0 0.00 0.00 0.00 73 998.4
20260502065052 37 217 0.0 0.0 0.00 0.00 0.00 74 998.4
20260502063550 37 275 0.0 3.0 0.00 0.00 0.00 71 998.3
20260502062049 37 256 1.0 2.0 0.00 0.00 0.00 71 998.6
20260502060544 37 212 0.0 2.0 0.00 0.00 0.00 71 998.6
20260502055044 37 207 1.0 2.0 0.00 0.00 0.00 71 998.6
20260502053541 37 234 1.0 2.0 0.00 0.00 0.00 71 998.6
20260502052040 37 226 1.0 1.0 0.00 0.00 0.00 71 998.5
20260502050537 37 206 0.0 0.0 0.00 0.00 0.00 70 998.5
20260502045034 37 228 1.0 2.0 0.00 0.00 0.00 69 998.4
20260502043530 37 220 0.0 1.0 0.00 0.00 0.00 69 998.4
20260502042025 38 259 1.0 4.0 0.00 0.00 0.00 67 998.2
20260502040522 38 303 0.0 7.0 0.00 0.00 0.00 66 998.3
20260502035018 38 282 0.0 1.0 0.00 0.00 0.00 66 998.4
20260502033518 38 311 2.0 4.0 0.00 0.00 0.00 66 998.3
20260502032014 38 302 2.0 3.0 0.00 0.00 0.00 66 998.2
20260502030514 39 2 3.0 6.0 0.00 0.00 0.00 65 998.5
20260502025012 38 321 2.0 4.0 0.00 0.00 0.00 65 998.3
20260502023511 38 306 2.0 3.0 0.00 0.00 0.00 64 998.1
20260502022008 39 323 5.0 7.0 0.00 0.00 0.00 61 997.9
20260502020506 39 204 1.0 9.0 0.00 0.00 0.00 61 997.7
20260502015002 39 343 4.0 6.0 0.00 0.00 0.00 60 997.8
20260502013457 40 10 4.0 6.0 0.00 0.00 0.00 59 997.6
20260502011955 40 301 3.0 4.0 0.00 0.00 0.00 57 997.3
20260502010450 40 293 1.0 4.0 0.00 0.00 0.00 56 997.2
20260502004948 41 352 2.0 6.0 0.00 0.00 0.00 54 997.2
20260502003443 41 315 6.0 9.0 0.00 0.00 0.00 54 996.9
20260502001940 41 184 3.0 8.0 0.00 0.00 0.00 52 997.2
20260502000439 41 330 4.0 9.0 0.00 0.00 0.00 52 996.9
20260501234938 41 293 10.0 13.0 0.00 0.00 0.00 54 996.9
20260501233436 41 197 5.0 10.0 0.00 0.00 0.00 51 996.7
20260501231932 43 303 11.0 15.0 0.00 0.00 0.00 46 996.8
20260501230427 43 300 7.0 13.0 0.00 0.00 0.00 56 996.8
20260501224923 43 299 6.0 10.0 0.00 0.00 0.00 52 996.7
20260501223420 43 258 7.0 10.0 0.00 0.00 0.00 51 996.7
20260501221915 44 303 8.0 14.0 0.00 0.00 0.00 51 996.5
20260501220414 45 255 7.0 11.0 0.00 0.00 0.00 54 996.4
20260501214913 45 279 12.0 15.0 0.00 0.00 0.00 47 996.5
20260501213413 45 313 11.0 15.0 0.00 0.00 0.00 53 996.4
20260501211908 46 304 9.0 17.0 0.00 0.00 0.00 53 996.3
20260501210406 47 284 10.0 14.0 0.00 0.00 0.00 50 996.2
20260501204902 47 268 8.0 16.0 0.00 0.00 0.00 55 996.1
20260501203357 46 230 4.0 9.0 0.00 0.00 0.00 55 996.2
20260501201854 47 288 10.0 13.0 0.00 0.00 0.00 59 996.1
20260501200350 46 276 8.0 10.0 0.00 0.00 0.00 61 996.2
20260501194846 46 310 3.0 8.0 0.00 0.00 0.00 61 996.1
20260501193343 47 281 7.0 13.0 0.00 0.00 0.00 59 995.8
20260501191839 45 271 9.0 19.0 0.00 0.00 0.00 60 995.8
20260501190335 46 333 9.0 14.0 0.00 0.00 0.00 63 995.7
20260501184834 46 293 7.0 15.0 0.00 0.00 0.00 63 995.6
20260501183330 46 333 7.0 13.0 0.00 0.00 0.00 62 995.5
20260501181825 46 263 9.0 11.0 0.00 0.00 0.00 60 995.5
20260501180321 45 282 6.0 10.0 0.00 0.00 0.00 62 995.4
20260501174818 45 279 6.0 9.0 0.00 0.00 0.00 58 995.4
20260501173316 46 276 2.0 8.0 0.00 0.00 0.00 57 995.3
20260501171814 46 32 5.0 10.0 0.00 0.00 0.00 57 995.4
20260501170311 45 198 3.0 6.0 0.00 0.00 0.00 59 995.5
20260501164809 45 329 2.0 2.0 0.00 0.00 0.00 60 995.5
20260501163305 44 291 4.0 6.0 0.00 0.00 0.00 62 995.6
20260501161801 43 339 3.0 3.0 0.00 0.00 0.00 63 995.6
20260501160257 44 274 2.0 3.0 0.00 0.00 0.00 61 995.7
20260501154754 46 274 2.0 4.0 0.00 0.00 0.00 64 995.6
20260501153252 42 17 1.0 2.0 0.00 0.00 0.00 70 995.7
20260501151749 41 353 0.0 2.0 0.00 0.00 0.00 71 995.8
20260501150249 40 197 2.0 6.0 0.00 0.00 0.00 74 995.5
20260501144745 40 353 0.0 2.0 0.00 0.00 0.00 74 995.6
20260501143241 39 319 0.0 0.0 0.00 0.00 0.00 76 995.3
20260501141740 39 17 3.0 6.0 0.00 0.00 0.00 76 995.4